Porto/Francisco de Sá Carneiro Airport

Airport
ICAO code: 
LPPR
IATA Code: 
OPO
Summary
ICAO Region: 
EUR
Territory: 
Location: 
Pedras Rubras, Porto
Serving: 
Porto
Elevation: 
228 ft
Coordinates: 
Aerial View: 
41° 14' 31.627" N, 8° 40' 42.785" W
Metar
Observation
LPPR 270200Z 08006KT CAVOK 09/02 Q1027
Station
Porto / Pedras Rubras
Date/Time
2022-01-27 02:00:00
Wind direction
80°
Wind speed
06 kts
Lowest cloud amount
clouds and visibility OK
Temperature
9°C
Dew point
2°C
Humidity
61%
QNH
1027 hPa
Weather condition
n/a

Francisco Sá Carneiro Airport or simply Porto Airport is an international airport near Porto, Portugal. It is located 11 km northwest of the Clérigos Tower in the centre of Porto, in the municipalities of Maia, Matosinhos and Vila do Conde.

Climatology

Dry-summer subtropical ”Mediterranean" climate (Köppen climate classification Csa)

Runways

Designator Length Width Surface Rops
17/35 3480 45 ASP Yes/Yes
Airport map: 
Aerial View: 

Accidents and Serious Incidents at or in the vicinity of LPPR

SKYbrary Partners:

Safety knowledge contributed by: